Weather in Gundogan

Turkey     36°52′39″N   37°32′48″E
temp.,
°C
wind,
m/s
gust,
m/s
humid.,
%
clouds,
%
prec.,
mm/h
press.,
hPa
HPBL,
m
10 may, mon
mon1000:00+14n912440 0.0 1011286
03:00+12n811400 0.0 1012225
06:00+10nnw59390 0.0 1013171
09:00+17n55200 0.0 1012408
12:00+23nw23140 0.0 10111396
15:00+26nw23110 0.0 10092117
18:00+24nw66140 0.0 1008739
21:00+18n46190 0.0 101062
11 may, tue
tue1100:00+17nnw33200 0.0 100915
03:00+15nnw45240 0.0 100948
06:00+14nnw33280 0.0 101029
09:00+20nw11190 0.0 1010631
12:00+25ssw23170 0.0 10091970
15:00+27sw44150 0.0 10082508
18:00+26wsw54180 0.0 10071853
21:00+19w22290 0.0 100816
12 may, wed
wed1200:00+18nnw33270 0.0 100913
03:00+16nnw22305 0.0 100911
06:00+16n22345 0.0 101011
09:00+23ene212343 0.0 1010591
12:00+26sse331554 0.0 10101854
15:00+29ssw44123 0.0 10082420
18:00+27sw54150 0.0 10081425
21:00+20w33290 0.0 101023
13 may, thu
thu1300:00+19nw33370 0.0 101013
03:00+17nw223996 0.0 101012
06:00+18nw22370 0.0 101111
09:00+25e01210 0.0 1011577
12:00+29ssw46155 0.0 10102290
15:00+30sw56120 0.0 10092453
18:00+28wsw55140 0.0 10091468
21:00+21nw33320 0.0 101119
14 may, fri
fri1400:00+20nw33290 0.0 101117
03:00+18nw33330 0.0 101115
06:00+17nw33385 0.0 101216
09:00+25w11220 0.0 1012530
12:00+30sw33130 0.0 10111722
15:00+32wsw66120 0.0 10102231
18:00+29wsw55180 0.0 10091246
21:00+22wnw45280 0.0 101157